| time (UTC) | temp F | wind direction | speed knots | gust knots | rain 1hr in | rain 24hr in | rain mn in | humidity % | barometer mb |
| 20260504204850 | 84 | 78 | 7.8 | 11.3 | 0.00 | 0.00 | 0.00 | 53 | 1014.6 |
| 20260504204348 | 84 | 325 | 0.9 | 1.7 | 0.00 | 0.00 | 0.00 | 51 | 1014.7 |
| 20260504203848 | 84 | 65 | 3.5 | 6.1 | 0.00 | 0.00 | 0.00 | 49 | 1014.8 |
| 20260504203344 | 84 | 62 | 2.6 | 2.6 | 0.00 | 0.00 | 0.00 | 52 | 1014.7 |
| 20260504202840 | 84 | 41 | 3.5 | 4.3 | 0.00 | 0.00 | 0.00 | 52 | 1014.9 |
| 20260504202337 | 84 | 288 | 0.9 | 0.9 | 0.00 | 0.00 | 0.00 | 49 | 1015.1 |
| 20260504201833 | 84 | 210 | 2.6 | 2.6 | 0.00 | 0.00 | 0.00 | 49 | 1014.9 |
| 20260504201331 | 82 | 98 | 4.3 | 5.2 | 0.00 | 0.00 | 0.00 | 52 | 1015.0 |
| 20260504200828 | 83 | 64 | 2.6 | 2.6 | 0.00 | 0.00 | 0.00 | 51 | 1015.0 |
| 20260504200325 | 84 | 102 | 7.0 | 8.7 | 0.00 | 0.00 | 0.00 | 50 | 1015.0 |
| 20260504195821 | 83 | 230 | 0.9 | 1.7 | 0.00 | 0.00 | 0.00 | 51 | 1015.1 |
| 20260504195317 | 83 | 80 | 2.6 | 4.3 | 0.00 | 0.00 | 0.00 | 50 | 1015.2 |
| 20260504194814 | 82 | 69 | 1.7 | 2.6 | 0.00 | 0.00 | 0.00 | 52 | 1015.3 |
| 20260504194310 | 82 | 75 | 2.6 | 4.3 | 0.00 | 0.00 | 0.00 | 51 | 1015.4 |
| 20260504193806 | 83 | 279 | 3.5 | 6.1 | 0.00 | 0.00 | 0.00 | 50 | 1015.5 |
| 20260504193304 | 83 | 100 | 7.0 | 8.7 | 0.00 | 0.00 | 0.00 | 50 | 1015.5 |
| 20260504192802 | 84 | 254 | 0.9 | 1.7 | 0.00 | 0.00 | 0.00 | 50 | 1015.5 |
| 20260504192300 | 84 | 44 | 3.5 | 5.2 | 0.00 | 0.00 | 0.00 | 49 | 1015.8 |
| 20260504191758 | 83 | 328 | 2.6 | 2.6 | 0.00 | 0.00 | 0.00 | 50 | 1015.6 |
| 20260504191255 | 83 | 194 | 2.6 | 4.3 | 0.00 | 0.00 | 0.00 | 50 | 1015.7 |
| 20260504190750 | 82 | 33 | 2.6 | 2.6 | 0.00 | 0.00 | 0.00 | 51 | 1015.7 |
| 20260504190247 | 82 | 165 | 3.5 | 4.3 | 0.00 | 0.00 | 0.00 | 52 | 1016.0 |
| 20260504185743 | 83 | 101 | 4.3 | 5.2 | 0.00 | 0.00 | 0.00 | 50 | 1016.0 |
| 20260504185240 | 82 | 289 | 0.9 | 0.9 | 0.00 | 0.00 | 0.00 | 51 | 1016.0 |
| 20260504184737 | 82 | 97 | 7.8 | 9.6 | 0.00 | 0.00 | 0.00 | 50 | 1016.1 |
| 20260504184232 | 81 | 88 | 6.1 | 7.8 | 0.00 | 0.00 | 0.00 | 52 | 1016.3 |
| 20260504183728 | 82 | 105 | 4.3 | 5.2 | 0.00 | 0.00 | 0.00 | 51 | 1016.4 |
| 20260504183226 | 82 | 49 | 6.1 | 6.1 | 0.00 | 0.00 | 0.00 | 49 | 1016.2 |
| 20260504182724 | 82 | 81 | 4.3 | 5.2 | 0.00 | 0.00 | 0.00 | 50 | 1016.5 |
| 20260504182221 | 83 | 71 | 5.2 | 8.7 | 0.00 | 0.00 | 0.00 | 50 | 1016.5 |
| 20260504181718 | 83 | 105 | 3.5 | 4.3 | 0.00 | 0.00 | 0.00 | 49 | 1016.8 |
| 20260504181216 | 82 | 55 | 3.5 | 4.3 | 0.00 | 0.00 | 0.00 | 49 | 1016.9 |
| 20260504180715 | 82 | 53 | 3.5 | 4.3 | 0.00 | 0.00 | 0.00 | 50 | 1016.9 |
| 20260504180213 | 81 | 120 | 2.6 | 4.3 | 0.00 | 0.00 | 0.00 | 51 | 1016.9 |
| 20260504175710 | 82 | 90 | 5.2 | 7.0 | 0.00 | 0.00 | 0.00 | 51 | 1016.9 |
| 20260504175207 | 82 | 333 | 0.9 | 0.9 | 0.00 | 0.00 | 0.00 | 51 | 1017.0 |
| 20260504174705 | 81 | 146 | 3.5 | 5.2 | 0.00 | 0.00 | 0.00 | 52 | 1017.0 |
| 20260504174202 | 81 | 109 | 2.6 | 2.6 | 0.00 | 0.00 | 0.00 | 52 | 1017.1 |
| 20260504173658 | 82 | 77 | 2.6 | 7.0 | 0.00 | 0.00 | 0.00 | 53 | 1017.4 |
| 20260504173155 | 81 | 64 | 1.7 | 2.6 | 0.00 | 0.00 | 0.00 | 53 | 1017.3 |
| 20260504172652 | 81 | 45 | 0.9 | 1.7 | 0.00 | 0.00 | 0.00 | 54 | 1017.2 |
| 20260504172148 | 81 | 358 | 0.9 | 1.7 | 0.00 | 0.00 | 0.00 | 54 | 1017.4 |
| 20260504171645 | 81 | 312 | 2.6 | 4.3 | 0.00 | 0.00 | 0.00 | 52 | 1017.0 |
| 20260504171142 | 82 | 49 | 7.0 | 8.7 | 0.00 | 0.00 | 0.00 | 52 | 1017.2 |
| 20260504170638 | 83 | 64 | 3.5 | 4.3 | 0.00 | 0.00 | 0.00 | 52 | 1017.4 |
| 20260504170136 | 81 | 62 | 3.5 | 5.2 | 0.00 | 0.00 | 0.00 | 53 | 1017.2 |
| 20260504151016 | 78 | 292 | 1.7 | 2.6 | 0.00 | 0.00 | 0.00 | 57 | 1018.3 |
| 20260504150513 | 78 | 334 | 3.5 | 5.2 | 0.00 | 0.00 | 0.00 | 57 | 1018.3 |
| 20260504140939 | 75 | 0 | 4.3 | 6.1 | 0.00 | 0.00 | 0.00 | 69 | 1018.2 |
| 20260504140435 | 75 | 27 | 1.7 | 1.7 | 0.00 | 0.00 | 0.00 | 69 | 1017.9 |
| 20260504130400 | 71 | 282 | 1.7 | 1.7 | 0.00 | 0.00 | 0.00 | 76 | 1018.0 |
| 20260504110247 | 62 | 270 | 0.0 | 0.0 | 0.00 | 0.00 | 0.00 | 91 | 1017.1 |
| 20260504100211 | 62 | 56 | 0.0 | 0.9 | 0.00 | 0.00 | 0.00 | 91 | 1016.8 |
| 20260504090134 | 63 | 252 | 0.0 | 0.9 | 0.00 | 0.00 | 0.00 | 90 | 1016.6 |
| 20260504081604 | 64 | 275 | 0.0 | 0.0 | 0.00 | 0.00 | 0.00 | 88 | 1016.6 |
| 20260504081100 | 64 | 270 | 0.0 | 0.0 | 0.00 | 0.00 | 0.00 | 88 | 1016.7 |
| 20260504080557 | 65 | 235 | 0.9 | 0.9 | 0.00 | 0.00 | 0.00 | 88 | 1016.7 |
| 20260504050404 | 67 | 74 | 1.7 | 1.7 | 0.00 | 0.00 | 0.00 | 85 | 1017.3 |
| 20260504045901 | 67 | 312 | 0.9 | 0.9 | 0.00 | 0.00 | 0.00 | 85 | 1017.4 |
| 20260504045356 | 68 | 278 | 0.9 | 0.9 | 0.00 | 0.00 | 0.00 | 85 | 1017.7 |
| 20260504044853 | 68 | 292 | 0.9 | 0.9 | 0.00 | 0.00 | 0.00 | 85 | 1017.9 |
| 20260504044350 | 68 | 263 | 0.0 | 0.0 | 0.00 | 0.00 | 0.00 | 85 | 1018.1 |
| 20260504043848 | 68 | 274 | 0.0 | 0.0 | 0.00 | 0.00 | 0.00 | 84 | 1018.2 |
| 20260504043344 | 68 | 282 | 0.0 | 0.0 | 0.00 | 0.00 | 0.00 | 84 | 1018.4 |
| 20260504042842 | 68 | 272 | 0.0 | 0.0 | 0.00 | 0.00 | 0.00 | 84 | 1018.0 |
| 20260504042338 | 68 | 273 | 0.0 | 0.0 | 0.00 | 0.00 | 0.00 | 83 | 1018.2 |
| 20260504041834 | 68 | 273 | 0.0 | 0.0 | 0.00 | 0.00 | 0.00 | 83 | 1018.2 |
| 20260504041331 | 68 | 293 | 0.9 | 0.9 | 0.00 | 0.00 | 0.00 | 83 | 1018.3 |
| 20260504040827 | 68 | 268 | 0.0 | 0.0 | 0.00 | 0.00 | 0.00 | 82 | 1018.6 |
| 20260504040325 | 69 | 270 | 0.0 | 0.0 | 0.00 | 0.00 | 0.00 | 82 | 1018.2 |
| 20260504035820 | 69 | 274 | 0.0 | 0.0 | 0.00 | 0.08 | 0.08 | 81 | 1018.5 |
| 20260504035318 | 69 | 280 | 0.0 | 0.0 | 0.00 | 0.08 | 0.08 | 81 | 1018.4 |
| 20260504034815 | 69 | 293 | 0.9 | 1.7 | 0.00 | 0.08 | 0.08 | 81 | 1018.4 |
| 20260504034313 | 70 | 69 | 0.9 | 1.7 | 0.00 | 0.08 | 0.08 | 81 | 1018.5 |
| 20260504033810 | 70 | 345 | 0.9 | 0.9 | 0.00 | 0.08 | 0.08 | 80 | 1018.3 |
| 20260504033307 | 70 | 54 | 2.6 | 4.3 | 0.00 | 0.08 | 0.08 | 81 | 1018.2 |
| 20260504032803 | 70 | 52 | 4.3 | 5.2 | 0.00 | 0.08 | 0.08 | 80 | 1018.5 |
| 20260504032301 | 70 | 31 | 0.9 | 1.7 | 0.00 | 0.08 | 0.08 | 80 | 1018.1 |
| 20260504031757 | 70 | 276 | 0.9 | 0.9 | 0.00 | 0.08 | 0.08 | 80 | 1018.1 |
| 20260504031255 | 70 | 87 | 3.5 | 5.2 | 0.00 | 0.08 | 0.08 | 80 | 1018.1 |
| 20260504030751 | 70 | 142 | 1.7 | 2.6 | 0.00 | 0.08 | 0.08 | 80 | 1018.0 |
| 20260504030248 | 70 | 282 | 0.9 | 0.9 | 0.00 | 0.08 | 0.08 | 80 | 1018.0 |
| 20260504025745 | 70 | 112 | 4.3 | 5.2 | 0.00 | 0.08 | 0.08 | 80 | 1018.1 |
| 20260504025242 | 71 | 63 | 2.6 | 2.6 | 0.00 | 0.08 | 0.08 | 80 | 1018.0 |
| 20260504024738 | 71 | 348 | 0.9 | 1.7 | 0.00 | 0.08 | 0.08 | 80 | 1018.1 |
| 20260504024235 | 71 | 283 | 2.6 | 2.6 | 0.00 | 0.08 | 0.08 | 80 | 1017.9 |
| 20260504023732 | 71 | 91 | 2.6 | 2.6 | 0.00 | 0.08 | 0.08 | 80 | 1018.2 |
| 20260504023228 | 71 | 311 | 0.0 | 0.9 | 0.00 | 0.08 | 0.08 | 79 | 1018.0 |
| 20260504022724 | 71 | 310 | 0.9 | 1.7 | 0.00 | 0.08 | 0.08 | 79 | 1018.1 |
| 20260504022220 | 71 | 305 | 0.0 | 0.9 | 0.00 | 0.08 | 0.08 | 79 | 1017.8 |
| 20260504021712 | 71 | 66 | 2.6 | 4.3 | 0.00 | 0.08 | 0.08 | 79 | 1017.8 |
| 20260504021209 | 71 | 71 | 3.5 | 4.3 | 0.00 | 0.08 | 0.08 | 79 | 1017.9 |
| 20260504020706 | 71 | 53 | 2.6 | 4.3 | 0.00 | 0.08 | 0.08 | 79 | 1017.7 |
| 20260504020202 | 71 | 94 | 3.5 | 4.3 | 0.00 | 0.08 | 0.08 | 79 | 1017.6 |
| 20260504015658 | 71 | 246 | 1.7 | 1.7 | 0.00 | 0.08 | 0.08 | 78 | 1017.5 |
| 20260504015154 | 72 | 342 | 2.6 | 4.3 | 0.00 | 0.08 | 0.08 | 78 | 1017.4 |
| 20260504014650 | 72 | 298 | 0.9 | 0.9 | 0.00 | 0.08 | 0.08 | 78 | 1017.8 |
| 20260504014148 | 72 | 92 | 1.7 | 1.7 | 0.00 | 0.08 | 0.08 | 78 | 1017.6 |
| 20260504013646 | 72 | 184 | 1.7 | 2.6 | 0.00 | 0.08 | 0.08 | 78 | 1017.2 |
| 20260504013142 | 72 | 303 | 0.9 | 1.7 | 0.00 | 0.08 | 0.08 | 78 | 1017.4 |
| 20260504012639 | 72 | 196 | 0.9 | 0.9 | 0.00 | 0.08 | 0.08 | 78 | 1017.3 |
| 20260504012137 | 72 | 85 | 2.6 | 4.3 | 0.00 | 0.08 | 0.08 | 78 | 1017.3 |
| 20260504011633 | 72 | 128 | 2.6 | 2.6 | 0.00 | 0.08 | 0.08 | 77 | 1017.5 |
| 20260504011130 | 72 | 149 | 0.9 | 1.7 | 0.00 | 0.08 | 0.08 | 77 | 1017.4 |
| 20260504010626 | 73 | 98 | 3.5 | 5.2 | 0.00 | 0.08 | 0.08 | 77 | 1017.1 |
| 20260504010122 | 73 | 79 | 4.3 | 7.0 | 0.00 | 0.08 | 0.08 | 77 | 1016.9 |
| 20260504005619 | 73 | 109 | 3.5 | 5.2 | 0.00 | 0.08 | 0.08 | 77 | 1016.8 |
| 20260504005115 | 73 | 74 | 1.7 | 1.7 | 0.00 | 0.08 | 0.08 | 76 | 1016.9 |
| 20260504004614 | 73 | 240 | 0.9 | 0.9 | 0.00 | 0.08 | 0.08 | 76 | 1016.7 |
| 20260504004111 | 73 | 82 | 2.6 | 4.3 | 0.00 | 0.08 | 0.08 | 76 | 1016.8 |
| 20260504003607 | 73 | 346 | 1.7 | 1.7 | 0.00 | 0.08 | 0.08 | 76 | 1016.9 |
| 20260504003103 | 74 | 246 | 2.6 | 2.6 | 0.00 | 0.08 | 0.08 | 75 | 1016.6 |
| 20260504002600 | 74 | 80 | 1.7 | 1.7 | 0.00 | 0.08 | 0.08 | 75 | 1016.3 |
| 20260504002058 | 74 | 70 | 2.6 | 4.3 | 0.00 | 0.08 | 0.08 | 75 | 1016.3 |
| 20260504001555 | 74 | 87 | 2.6 | 4.3 | 0.00 | 0.08 | 0.08 | 74 | 1016.4 |
| 20260504001051 | 75 | 213 | 0.9 | 0.9 | 0.00 | 0.08 | 0.08 | 74 | 1016.4 |
| 20260504000548 | 75 | 73 | 4.3 | 5.2 | 0.00 | 0.08 | 0.08 | 73 | 1016.3 |
| 20260504000046 | 75 | 108 | 3.5 | 5.2 | 0.00 | 0.08 | 0.08 | 72 | 1016.4 |
| 20260503235544 | 75 | 91 | 2.6 | 2.6 | 0.00 | 0.08 | 0.08 | 72 | 1016.4 |
| 20260503235041 | 75 | 144 | 0.9 | 1.7 | 0.00 | 0.08 | 0.08 | 71 | 1016.3 |
| 20260503234538 | 76 | 98 | 2.6 | 5.2 | 0.00 | 0.08 | 0.08 | 70 | 1016.3 |
| 20260503234037 | 76 | 197 | 2.6 | 2.6 | 0.00 | 0.08 | 0.08 | 70 | 1016.3 |
| 20260503233532 | 76 | 107 | 2.6 | 2.6 | 0.00 | 0.08 | 0.08 | 70 | 1016.3 |
| 20260503233028 | 77 | 62 | 1.7 | 1.7 | 0.00 | 0.08 | 0.08 | 69 | 1016.0 |
| 20260503232526 | 77 | 105 | 3.5 | 4.3 | 0.00 | 0.08 | 0.08 | 68 | 1016.1 |
| 20260503232023 | 77 | 145 | 1.7 | 2.6 | 0.00 | 0.08 | 0.08 | 68 | 1016.0 |
| 20260503231521 | 77 | 284 | 0.9 | 0.9 | 0.00 | 0.08 | 0.08 | 68 | 1016.1 |
| 20260503231018 | 78 | 95 | 1.7 | 2.6 | 0.00 | 0.08 | 0.08 | 67 | 1016.0 |
| 20260503230514 | 78 | 192 | 0.9 | 2.6 | 0.00 | 0.08 | 0.08 | 67 | 1015.9 |
| 20260503230012 | 78 | 83 | 3.5 | 4.3 | 0.00 | 0.08 | 0.08 | 66 | 1016.0 |
| 20260503225508 | 78 | 129 | 4.3 | 5.2 | 0.00 | 0.08 | 0.08 | 64 | 1016.0 |
| 20260503225003 | 79 | 125 | 2.6 | 4.3 | 0.00 | 0.08 | 0.08 | 64 | 1016.0 |
| 20260503224501 | 79 | 226 | 1.7 | 2.6 | 0.00 | 0.08 | 0.08 | 63 | 1016.0 |
| 20260503223958 | 80 | 144 | 4.3 | 6.1 | 0.00 | 0.08 | 0.08 | 62 | 1016.0 |
| 20260503223451 | 80 | 64 | 4.3 | 5.2 | 0.00 | 0.08 | 0.08 | 62 | 1015.9 |
| 20260503222946 | 79 | 64 | 2.6 | 2.6 | 0.00 | 0.08 | 0.08 | 62 | 1016.0 |
| 20260503222445 | 80 | 118 | 2.6 | 2.6 | 0.00 | 0.08 | 0.08 | 62 | 1016.0 |
| 20260503221943 | 80 | 342 | 3.5 | 5.2 | 0.00 | 0.08 | 0.08 | 62 | 1016.0 |
| 20260503221441 | 80 | 78 | 4.3 | 5.2 | 0.00 | 0.08 | 0.08 | 62 | 1015.9 |
| 20260503220938 | 79 | 294 | 0.9 | 0.9 | 0.00 | 0.08 | 0.08 | 63 | 1015.9 |
| 20260503220434 | 80 | 85 | 2.6 | 4.3 | 0.00 | 0.08 | 0.08 | 61 | 1016.0 |
| 20260503215931 | 80 | 265 | 0.9 | 0.9 | 0.00 | 0.08 | 0.08 | 61 | 1015.9 |
| 20260503215428 | 80 | 210 | 2.6 | 2.6 | 0.00 | 0.08 | 0.08 | 62 | 1016.1 |
| 20260503214926 | 79 | 97 | 2.6 | 2.6 | 0.00 | 0.08 | 0.08 | 62 | 1015.8 |
| 20260503214423 | 79 | 100 | 5.2 | 6.1 | 0.00 | 0.08 | 0.08 | 63 | 1016.1 |
| 20260503213920 | 78 | 342 | 0.9 | 0.9 | 0.00 | 0.08 | 0.08 | 64 | 1016.0 |
| 20260503213418 | 79 | 96 | 2.6 | 5.2 | 0.00 | 0.08 | 0.08 | 62 | 1016.2 |
| 20260503212914 | 79 | 88 | 2.6 | 2.6 | 0.00 | 0.08 | 0.08 | 63 | 1016.1 |
| 20260503212412 | 78 | 107 | 3.5 | 4.3 | 0.00 | 0.08 | 0.08 | 63 | 1015.8 |
| 20260503211909 | 79 | 121 | 6.1 | 7.0 | 0.00 | 0.08 | 0.08 | 63 | 1016.1 |
| 20260503211405 | 78 | 201 | 0.9 | 0.9 | 0.00 | 0.08 | 0.08 | 65 | 1015.9 |
| 20260503210900 | 79 | 92 | 2.6 | 4.3 | 0.00 | 0.08 | 0.08 | 63 | 1016.2 |
| 20260503210358 | 79 | 56 | 1.7 | 2.6 | 0.00 | 0.08 | 0.08 | 63 | 1016.2 |
| 20260503205852 | 78 | 331 | 0.9 | 1.7 | 0.00 | 0.08 | 0.08 | 64 | 1016.1 |
| 20260503205349 | 78 | 289 | 0.9 | 0.9 | 0.00 | 0.08 | 0.08 | 64 | 1016.1 |